Regional Weather Roundup
Issued by NWS Sterling, VA

Home | Current Version | Previous Version | Text Only | Print | Product List | Glossary Off
Versions: 1 2 3 4 5 6 7 8 9 10 11 12 13 14 15 16 17 18 19 20 21 22 23 24 25 26 27 28 29 30 31 32 33 34 35 36 37 38 39 40 41 42 43 44 45 46 47 48 49 50

532
ASUS41 KLWX 031110
RWRLWX

REGIONAL WEATHER ROUNDUP
NATIONAL WEATHER SERVICE BALTIMORE MD/WASHINGTON DC
600 AM EST SAT DEC 03 2016

Note: "FAIR" indicates few or no clouds below 12,000 feet
with no significant weather and/or obstructions to visibility.
 TC=TEMPERATURE CELSIUS

 * =Non NWS site. Station does not report precipitation (e.g. rain,
    snow, etc.), thunder, or fog.

DCZ001-MDZ009-015-VAZ040>042-051-053>054-031200-
WASHINGTON METRO

CITY           SKY/WX    TMP DP  RH WIND       PRES   REMARKS
WASHINGTON NAT CLEAR     44  28  53 W12       30.17R
DULLES         PTCLDY    39  27  62 NW14      30.17R
ANDREWS AFB    CLEAR     41  28  58 W10       30.14R
FT BELVOIR     CLEAR     43  28  56 W12       30.17R
QUANTICO       CLEAR     41  28  60 NW5       30.21R
COLLEGE PARK*  CLEAR     41  28  60 W9G16     30.15R
LEESBURG*      PTCLDY    41  32  70 NW9       30.19R
MANASSAS*      PTCLDY    43  28  56 NW17      30.18R
GAITHERSBURG*  CLEAR     39  25  56 W8G16     30.19R

$$

MDZ006>007-011-014-031200-
BALTIMORE METRO

CITY           SKY/WX    TMP DP  RH WIND       PRES   REMARKS
BWI AIRPORT    PTCLDY    41  29  62 W14G24    30.12R
MD SCIENCE CTR   N/A     43  28  55 MISG      30.12R
ANNAPOLIS      CLEAR     45  30  55 W7        30.13R
FORT MEADE*    CLEAR     41  30  65 W10       30.16R

$$

MDZ012-015-019>023-031200-
MARYLAND EASTERN SHORE

CITY           SKY/WX    TMP DP  RH WIND       PRES   REMARKS
OCEAN CITY     CLEAR     37  29  72 W7        30.11R
SALISBURY      CLEAR     38  29  70 W7        30.12R
BAY BRIDGE AP* CLEAR     43  32  65 W12       30.13R
CAMBRIDGE*     CLEAR     41  30  65 NW12G20   30.12S
EASTON*        CLEAR     44  30  57 NW12G17   30.16R

$$

MDZ017>025-031200-
SOUTHERN MARYLAND

CITY           SKY/WX    TMP DP  RH WIND       PRES   REMARKS
PATUXENT RIVER CLEAR     38  27  64 W9        30.16R
ST INIGOES     CLEAR     43  30  60 W10       30.16R
LEONARDTOWN*   CLEAR     41  28  60 W8        30.17S

$$

MDZ003>005-031200-
NORTH CENTRAL MARYLAND

CITY           SKY/WX    TMP DP  RH WIND       PRES   REMARKS
FREDERICK*     PTCLDY    39  30  70 W13G18    30.18S
HAGERSTOWN APT CLOUDY    41  27  57 W7        30.15R
WESTMINSTER*   MOCLDY    37  28  70 W12G18    30.11R

$$

MDZ501>502-031200-
WESTERN MARYLAND

CITY           SKY/WX    TMP DP  RH WIND       PRES   REMARKS
OAKLAND*       NOT AVBL
CUMBERLAND*    NOT AVBL

$$

VAZ025>031-031200-
SHENANDOAH VALLEY

CITY           SKY/WX    TMP DP  RH WIND       PRES   REMARKS
WINCHESTER*    NOT AVBL
FRONT ROYAL*   NOT AVBL
LURAY*         CLOUDY    41  32  70 NW6G16    30.20R
NEW MARKET*    CLOUDY    39  27  62 CALM      30.20R
STAUNTON*      NOT AVBL
WAYNESBORO*    PTSUNNY   34  23  64 W7        30.20R

$$

WVZ021-048>050-054>055-031200-
EASTERN WEST VIRGINIA PANHANDLE

CITY           SKY/WX    TMP DP  RH WIND       PRES   REMARKS
MARTINSBURG    CLOUDY    39  26  59 W5        30.17R
PETERSBURG*    CLOUDY    40  30  68 N7        30.23R

$$

VAZ036>039-050-031200-
CENTRAL FOOTHILLS

CITY           SKY/WX    TMP DP  RH WIND       PRES   REMARKS
CHARLOTTESVILL PTCLDY    37  24  59 S5        30.20R
CULPEPER*      CLOUDY    37  31  79 CALM      30.22R
ORANGE*          N/A     32  30  93 CALM      30.22R
GORDONSVILLE*  NOT AVBL
WARRENTON*     NOT AVBL

$$

VAZ055>057-031200-
NORTH AND CENTRAL PIEDMONT

CITY           SKY/WX    TMP DP  RH WIND       PRES   REMARKS
FREDERICKSBRG* MOCLDY    40  30  66 W8        30.20R
STAFFORD*      NOT AVBL

$$

NCZ024-NYZ072-PAZ021-071-VAZ022-071-031200-
OTHER REGIONAL OBSERVATIONS

CITY           SKY/WX    TMP DP  RH WIND       PRES   REMARKS
NEW YORK CITY  PTCLDY    41  26  55 NW10G17   29.98R
PHILADELPHIA   MOCLDY    45  30  55 NW8       30.06R
PITTSBURGH     CLOUDY    37  29  72 NW13      30.23S WCI  29
ROANOKE        PTCLDY    38  24  57 CALM      30.27R
RICHMOND       CLEAR     35  26  69 W8        30.21  WCI  29
RALEIGH        CLOUDY    36  28  73 CALM      30.23S

$$

ANZ530>537-031200-
MARINE OBSERVATIONS

STATION/POSITION TIME  TEMP    WIND        PRES
                       AIR SEA DIR/SP/G
                 (UTC) (F)     (DEG/KT/KT) (MB)
THOMAS PT LIGHT  1100   44 49  290/ 16/ 17   N/A
BALT KEY BRIDGE  1042   44     260/ 14/ 17 1019.8R
COVE POINT       1042   43     330/ 13/ 20 1021.3R
LEWISETTA        1042   41 51  280/ 10/ 12 1021.6R
SOLOMONS ISLAND  1042   44 52  290/  8/ 13   N/A
PINEY POINT      1048          310/ 15/ 18   N/A

$$





USA.gov is the U.S. government's official web portal to all federal, state and local government web resources and services.